Theta_e
312 321 324 327 327 325 323 323 324 329 332 330 336 340 342 343 346 348 343 343 341 345 344 344 340 341 341 339 339 339 338 336 335 333 329 326 325 326 328 332 338 340 339 336 329 321 320 330 333
315 322 327 326 326 322 322 323 326 329 331 334 334 337 339 342 343 342 342 341 340 344 346 345 342 340 340 340 340 339 339 338 335 334 334 333 327 326 325 329 335 340 340 338 334 328 321 320 329
319 326 326 326 322 324 323 322 328 331 331 331 332 336 339 339 341 340 340 343 343 344 345 346 342 342 340 340 340 338 338 339 338 336 333 334 331 327 327 325 332 337 340 339 334 328 321 319 319
324 325 324 322 320 323 323 324 331 327 327 329 333 332 333 333 337 337 340 342 343 345 343 343 340 341 340 338 338 338 337 339 339 338 336 332 332 331 328 327 326 334 337 339 333 323 320 316 317
325 322 322 319 321 322 324 330 329 326 326 329 331 333 332 333 335 334 338 340 343 343 343 342 341 340 340 339 336 335 336 336 337 337 336 334 332 331 329 330 329 329 333 334 329 323 318 317 316
325 323 319 318 321 323 323 327 328 326 326 325 333 334 332 335 339 335 333 335 337 341 340 340 339 338 337 337 338 338 339 337 335 335 335 335 334 334 334 332 330 334 332 325 323 328 330 319 316
326 323 321 319 321 322 322 323 326 325 324 323 328 327 330 335 336 336 331 334 336 337 337 337 336 336 336 335 335 336 336 336 337 338 337 334 334 334 334 334 332 333 337 336 331 332 335 336 325
323 323 322 320 321 322 320 321 321 322 317 322 321 324 329 331 336 336 335 334 333 333 331 332 333 332 332 331 332 332 334 333 334 335 336 338 338 337 337 336 334 332 330 330 333 335 335 335 337
317 324 323 323 321 321 320 319 318 317 318 317 318 323 327 327 336 336 334 328 329 328 325 323 324 322 322 324 326 324 325 329 332 333 334 334 336 337 339 338 338 339 336 333 331 330 329 331 333
319 324 322 318 318 319 320 319 317 318 317 316 317 319 321 322 325 323 318 316 315 314 313 312 312 311 310 310 310 310 309 312 317 326 324 328 333 335 336 339 337 337 337 336 335 334 332 330 329
319 322 319 316 317 320 320 317 318 319 318 317 317 317 317 317 317 316 315 315 314 312 311 311 311 310 310 309 309 309 312 311 310 310 318 320 322 326 329 331 333 334 334 336 336 337 336 335 334
317 316 316 315 314 317 318 317 317 318 315 317 318 317 317 316 315 315 314 313 312 311 310 310 309 309 309 309 309 309 309 310 310 310 310 309 310 310 318 322 326 329 332 331 336 335 336 336 336
315 314 313 313 313 312 314 315 314 315 315 314 315 315 315 315 314 314 313 313 311 310 309 309 309 309 309 310 310 310 311 311 311 312 311 311 311 311 311 310 312 322 327 328 327 331 333 334 335
315 314 313 313 313 313 315 314 313 315 314 312 312 312 313 313 313 313 312 312 313 311 310 309 310 310 310 310 310 311 311 312 312 312 312 312 312 313 314 313 312 312 312 316 324 326 324 325 333
314 314 314 314 313 314 313 315 313 315 313 312 312 312 312 312 312 312 312 313 313 313 311 310 309 310 310 311 311 312 312 312 312 312 313 313 314 314 314 314 315 314 313 313 313 317 324 329 323
316 316 317 314 314 313 314 318 315 314 313 312 313 312 312 312 312 311 312 313 312 310 310 310 310 310 311 312 312 312 313 313 313 313 314 314 315 315 315 314 314 314 315 316 317 316 316 316 320
315 316 318 315 314 314 314 316 313 313 312 312 313 313 313 312 312 312 313 313 312 312 312 311 310 311 312 312 311 312 313 314 315 315 314 315 316 315 314 313 313 313 314 315 317 318 317 317 318
313 315 316 316 314 314 314 313 314 313 311 311 312 313 313 313 312 312 312 313 313 313 312 310 311 312 310 308 307 309 311 313 314 313 313 315 315 314 314 314 313 313 314 315 315 316 317 318 318
312 313 313 314 312 312 313 313 313 315 313 312 313 313 313 313 313 313 312 313 313 313 310 311 311 306 305 305 305 306 310 311 312 312 312 312 314 315 315 313 314 315 315 315 316 317 316 317 318
313 313 314 312 312 311 312 311 311 313 314 315 315 315 314 314 314 313 312 312 312 311 311 310 306 304 304 304 303 306 307 309 311 312 312 313 313 313 314 314 313 313 316 316 316 317 317 317 318
312 313 312 313 313 313 312 314 315 315 313 314 315 314 314 314 314 313 313 312 312 311 311 306 306 305 305 304 303 304 305 306 309 311 312 313 312 312 314 315 313 312 313 316 317 318 317 317 317
315 311 312 314 314 317 313 309 316 314 315 314 314 314 314 314 314 314 313 312 313 312 310 307 305 305 305 304 304 303 303 304 309 311 311 312 312 312 310 311 311 311 312 312 313 315 316 317 315
313 312 312 313 313 312 315 310 314 318 317 314 313 314 315 314 313 314 313 313 313 312 309 306 306 306 306 305 305 303 302 303 308 311 311 311 311 311 312 312 311 310 311 312 314 314 314 316 317
311 312 312 312 313 313 316 313 314 319 315 315 314 313 314 314 314 314 314 314 313 311 308 307 306 306 306 306 306 304 302 302 307 309 311 311 310 311 311 312 312 312 311 312 314 313 314 314 314
312 313 318 317 314 315 313 310 311 315 315 314 315 315 313 314 314 314 314 313 311 309 308 308 308 308 308 307 307 306 304 301 303 308 310 309 310 310 311 311 311 312 313 313 312 313 311 311 312
313 312 313 319 317 313 311 310 311 313 313 313 313 315 315 314 314 314 314 314 313 310 309 309 310 310 310 310 309 307 305 303 301 305 306 307 306 309 309 311 311 311 312 313 314 315 313 313 312
314 313 311 309 313 310 311 315 318 316 316 315 313 313 313 315 315 314 314 313 312 311 311 311 311 310 310 310 310 309 307 305 302 300 304 303 302 309 311 311 311 311 311 311 314 314 312 313 314
313 311 314 312 314 316 315 316 314 309 315 315 313 313 314 315 315 315 314 314 313 312 311 311 311 311 310 309 310 310 309 307 304 300 300 302 302 308 311 311 311 311 310 312 314 312 312 312 312
311 311 312 312 312 312 311 310 317 311 315 314 314 314 314 314 314 314 313 313 312 312 312 311 311 311 309 309 309 309 310 308 306 302 300 299 299 304 311 311 311 311 312 312 311 311 311 311 311
310 312 311 310 313 312 312 311 316 314 313 314 314 315 314 314 314 313 312 311 311 311 311 311 311 310 308 308 308 309 309 309 307 304 301 299 299 301 308 311 311 310 311 311 311 312 312 312 311
Wind_Speed
11 17 13 4 1 3 7 5 4 7 4 8 14 16 15 19 7 7 9 7 8 7 3 1 2 2 1 1 0 2 2 3 4 5 6 5 4 2 2 1 2 2 1 5 6 5 4 1 1
20 18 8 4 2 4 6 4 3 7 12 11 9 6 13 7 15 16 7 4 6 8 1 4 2 2 1 1 2 2 3 3 3 3 4 4 3 3 2 2 2 3 5 3 5 5 4 4 3
22 15 6 3 4 6 2 8 7 17 13 8 4 12 8 6 8 8 8 7 8 6 5 6 2 2 2 1 2 3 4 4 4 4 4 4 4 4 4 4 4 4 6 6 6 7 6 5 6
14 8 3 1 9 3 2 6 19 12 8 4 14 8 9 6 7 9 13 9 7 9 8 5 3 1 1 2 3 4 4 5 6 6 6 6 6 6 5 5 5 6 7 9 8 8 7 6 7
18 6 3 4 7 1 2 16 19 9 10 7 6 7 8 4 12 15 16 10 12 9 7 4 2 2 3 3 3 5 6 7 7 7 8 8 7 7 7 6 6 7 9 11 10 9 7 7 7
7 7 4 6 6 4 5 7 15 11 15 6 15 11 7 9 11 14 9 11 8 7 4 4 3 2 4 5 5 7 8 8 9 10 10 10 10 10 10 9 9 9 10 12 11 10 9 8 9
2 3 7 9 7 4 4 3 4 11 12 6 9 5 10 13 12 13 11 7 6 4 3 2 2 3 5 7 7 8 11 11 12 13 14 13 13 13 13 13 12 12 13 13 13 14 12 11 10
4 2 6 6 11 5 9 6 5 7 6 6 5 4 8 15 15 13 11 7 5 5 5 6 6 6 7 9 9 10 11 12 11 15 15 15 16 16 16 16 16 16 17 16 16 16 16 15 15
2 1 4 4 12 7 13 4 3 8 12 6 5 12 20 14 14 12 10 8 6 8 7 7 8 9 9 9 11 12 14 14 14 15 15 17 16 15 16 17 18 18 18 18 18 19 19 19 20
3 2 7 6 9 8 16 13 9 5 11 6 8 11 11 13 13 11 9 6 8 8 7 8 9 10 11 11 13 12 10 16 14 13 14 16 16 14 17 17 20 21 23 22 22 23 22 23 24
3 4 4 11 14 16 6 13 4 7 5 12 12 11 11 11 11 10 10 10 9 9 10 10 11 11 12 12 12 10 10 16 15 15 15 16 19 20 20 21 19 20 21 22 22 22 22 21 21
5 9 9 5 9 6 5 9 3 4 6 10 10 10 12 11 8 8 9 9 11 10 11 12 12 12 13 13 12 13 14 15 18 17 18 20 21 22 21 20 16 18 21 23 20 21 22 22 23
9 6 11 8 8 11 5 3 4 1 3 7 11 13 11 10 10 11 12 13 12 11 11 12 12 12 13 14 15 16 17 18 19 21 23 22 23 24 24 24 24 23 22 21 24 27 25 25 25
12 15 10 8 8 6 3 3 3 6 8 7 7 9 12 13 12 12 14 11 10 12 12 11 12 14 16 18 19 20 20 20 21 23 24 24 25 25 26 27 28 27 27 29 24 25 29 32 31
20 9 7 6 4 4 3 1 5 5 8 8 10 10 13 14 15 15 15 12 11 12 13 13 15 17 17 19 21 22 22 22 22 22 23 23 23 24 25 27 27 28 28 28 29 28 25 27 30
5 5 4 2 1 2 3 5 8 11 8 10 12 12 13 16 17 16 15 17 15 13 12 15 16 17 19 20 21 21 21 20 20 19 20 21 21 21 24 27 28 27 25 23 24 26 27 29 29
2 3 5 4 2 1 2 4 5 6 9 14 16 18 18 17 16 15 14 16 12 12 12 15 16 17 18 19 19 18 17 15 15 16 18 14 17 20 20 21 22 22 25 24 24 22 24 25 25
4 6 5 4 2 2 3 10 7 12 12 18 18 20 20 20 20 18 17 16 14 14 17 14 15 15 14 15 15 16 16 14 18 19 15 14 17 15 16 16 15 16 17 21 24 26 25 24 24
6 6 7 4 3 2 6 10 9 14 17 21 23 23 21 19 19 18 18 16 19 19 15 12 12 11 12 13 15 16 17 16 17 17 15 14 12 9 14 13 12 11 12 12 13 16 19 21 21
6 4 5 3 0 1 6 12 12 13 18 25 25 24 23 21 18 20 17 19 20 15 12 10 8 10 12 13 16 16 18 19 18 15 13 12 11 10 10 12 11 10 10 12 13 13 16 17 17
8 6 6 4 4 3 6 7 4 7 22 24 20 15 12 8 8 15 17 19 15 12 10 8 9 10 12 14 16 18 19 20 19 16 14 11 9 10 8 9 11 10 8 10 11 12 13 16 17
4 5 3 4 4 1 2 5 6 5 6 4 11 13 11 11 12 13 13 12 12 11 10 9 9 10 12 14 17 18 20 21 22 18 15 13 11 10 9 10 9 10 9 10 10 11 13 15 19
3 3 3 2 3 4 2 3 8 5 3 4 2 11 12 10 10 11 10 11 11 12 10 9 10 11 12 14 16 18 20 20 21 17 14 13 12 12 11 11 10 9 10 9 10 13 14 14 17
2 4 5 2 1 2 1 4 6 1 3 3 5 6 8 9 9 9 9 10 13 13 11 10 11 12 13 15 16 17 18 18 17 17 16 15 13 13 13 13 13 12 10 11 11 12 13 15 17
3 3 2 3 3 4 3 1 10 8 2 4 4 5 4 7 10 12 14 14 12 12 11 11 12 14 15 17 17 17 17 17 16 15 17 17 14 12 12 11 13 14 14 13 13 14 15 16 19
4 3 3 2 1 3 3 5 6 1 5 7 7 3 4 5 10 12 12 12 13 13 13 13 14 16 18 19 18 17 17 17 17 15 15 15 16 15 12 13 12 12 14 14 12 13 16 18 17
1 1 1 4 1 3 4 6 8 6 5 6 11 7 11 8 8 9 10 12 14 15 15 16 16 18 21 22 20 19 18 18 17 17 17 15 15 16 14 14 13 12 14 12 10 12 13 13 12
2 2 2 2 2 4 5 4 5 4 5 7 3 5 6 5 6 9 12 15 16 17 17 18 19 24 26 25 23 21 20 19 18 17 16 15 15 16 18 15 9 9 10 8 8 9 9 10 10
2 2 3 1 2 3 3 6 6 6 4 3 6 5 5 6 8 10 12 14 16 19 22 24 27 29 27 26 24 24 22 20 19 17 17 16 15 15 15 9 6 5 5 5 8 11 13 13 14
4 3 6 3 3 4 1 6 3 3 3 1 3 4 5 9 13 14 17 19 22 26 26 24 24 27 28 22 23 24 23 22 20 19 17 18 16 14 13 11 8 6 6 8 11 12 13 13 14
Wind_Direction
179 161 150 174 137 226 242 264 96 104 76 47 35 63 92 49 31 111 135 147 139 119 183 74 128 142 169 157 7 7 8 10 18 24 29 29 27 33 44 55 48 300 318 27 30 13 358 335 200
159 149 150 250 210 196 249 144 89 93 94 90 55 43 45 66 90 108 90 103 134 129 184 167 81 128 181 206 271 307 317 325 341 359 11 15 2 348 345 303 278 298 226 343 353 346 332 292 251
151 153 157 182 211 214 236 132 119 97 118 118 86 53 60 95 89 102 128 97 103 121 187 186 204 117 173 215 270 292 301 302 300 316 331 340 343 333 315 293 277 268 245 287 316 324 316 285 268
141 182 262 230 237 335 49 140 107 112 98 125 117 79 87 56 130 142 120 123 147 165 196 217 205 169 165 206 244 274 291 287 283 287 297 310 312 319 316 298 276 268 265 272 293 309 303 289 264
165 192 191 212 238 229 46 109 123 141 151 142 116 90 90 96 146 124 124 122 139 139 180 182 130 32 13 344 309 301 290 289 286 281 285 288 293 295 301 300 284 272 261 265 278 295 297 288 270
162 216 213 203 147 88 33 106 165 128 114 124 104 103 104 135 143 130 133 144 146 170 162 142 178 267 317 323 304 311 306 303 296 289 283 282 281 278 280 286 285 279 274 271 271 278 286 288 275
285 192 242 202 125 129 135 219 217 124 137 48 115 93 136 155 169 152 145 170 171 163 164 187 229 269 283 289 288 287 295 301 296 303 295 286 281 281 282 282 283 279 275 275 274 274 276 278 278
214 210 259 205 147 155 135 184 18 93 59 135 56 155 163 186 167 170 173 193 201 224 244 251 259 265 274 289 284 285 284 287 286 290 298 300 289 285 282 279 277 276 274 274 274 275 276 273 271
247 258 251 93 157 124 156 117 43 87 115 99 66 92 144 176 168 180 190 202 226 237 246 253 259 269 272 273 284 284 282 280 279 280 281 285 290 294 289 279 282 277 271 271 272 274 274 274 272
228 262 28 8 356 127 166 140 138 141 127 111 112 131 162 164 168 180 175 202 220 247 254 261 271 276 278 275 276 292 291 285 284 278 290 284 280 275 280 280 285 282 280 277 275 274 273 272 271
39 39 75 30 11 126 134 88 119 147 188 166 162 161 158 154 174 188 200 216 240 262 270 277 279 281 281 282 286 287 273 284 286 272 263 267 267 268 267 271 279 286 286 281 276 277 276 279 280
107 36 59 45 24 61 108 123 190 336 90 122 127 167 164 176 193 205 222 242 248 259 270 277 284 287 289 293 291 286 284 288 291 289 276 277 277 273 269 267 263 272 282 282 282 282 278 273 270
94 99 77 81 63 48 84 67 39 192 174 156 158 169 184 189 194 224 229 240 260 262 271 278 285 290 293 297 297 296 293 290 287 285 285 286 284 282 278 275 267 256 253 273 271 267 268 267 267
116 113 107 86 84 66 3 114 28 212 184 187 205 211 203 210 223 231 250 244 247 270 275 284 287 292 297 299 299 299 298 295 288 284 285 284 282 281 282 279 275 272 265 261 264 275 273 265 264
130 109 119 59 37 63 9 252 226 184 201 214 233 231 227 229 228 227 243 252 241 251 273 287 292 298 302 303 305 304 301 297 291 286 285 284 280 276 272 273 271 273 271 270 264 258 262 273 269
137 154 119 60 356 80 19 280 188 168 195 229 233 236 237 233 238 242 235 246 248 256 274 282 292 301 306 308 309 308 305 301 297 293 287 285 282 279 275 275 274 270 270 271 274 269 267 272 280
251 149 115 135 41 67 192 285 99 181 218 245 248 243 239 244 242 240 242 248 250 269 268 278 296 307 312 316 317 317 319 321 317 294 299 301 292 286 289 289 288 280 268 260 262 268 267 270 273
187 142 152 145 48 260 248 263 262 218 225 244 248 249 243 241 243 244 244 255 254 251 264 283 295 304 314 322 326 321 316 291 288 293 287 275 281 295 300 303 304 294 280 269 268 269 269 274 278
244 126 153 86 70 310 236 257 255 268 226 232 241 247 249 248 253 238 217 234 253 256 270 275 289 307 320 326 329 331 326 317 306 300 295 286 287 292 295 308 314 321 313 304 295 287 281 276 279
17 120 64 89 102 282 332 292 265 252 245 243 243 244 248 250 235 208 225 247 254 253 254 271 295 316 326 333 332 334 337 340 332 320 302 298 292 284 304 305 305 298 294 298 300 292 293 290 288
40 21 39 26 284 187 294 288 277 249 235 242 243 239 233 235 212 225 239 253 242 235 241 263 300 316 329 334 335 342 342 340 338 324 312 298 293 280 284 294 299 297 290 292 301 300 298 298 291
116 356 7 0 29 235 35 277 307 278 270 225 241 247 250 243 233 235 238 213 221 234 249 274 291 316 325 332 334 338 340 342 340 328 321 310 295 289 280 278 286 283 281 287 287 287 284 285 293
100 338 7 330 312 53 181 73 272 297 282 335 267 217 184 203 201 209 215 214 230 244 258 278 298 304 312 323 332 337 338 338 340 337 324 319 301 288 280 274 277 281 284 281 294 299 297 296 296
152 239 209 226 333 23 334 120 285 286 27 33 66 61 158 184 204 216 228 228 233 244 262 278 286 298 309 316 325 329 329 330 335 340 332 320 316 303 284 278 286 290 285 283 283 280 285 290 289
256 270 340 352 10 224 102 59 244 296 7 325 41 121 170 201 208 212 222 238 243 253 268 280 293 300 302 306 312 317 321 321 327 337 342 343 328 321 318 297 288 285 282 277 275 281 285 291 294
42 353 136 203 332 280 107 244 258 13 305 288 282 186 180 218 223 227 240 255 264 267 274 285 293 299 296 295 299 304 312 316 316 319 328 332 334 331 319 303 295 291 288 283 288 294 301 306 304
62 85 37 75 88 46 238 281 310 355 25 351 240 250 250 268 259 253 252 256 262 267 273 279 285 294 298 291 289 295 301 308 310 311 314 327 331 327 323 313 291 297 307 293 277 294 312 315 312
345 193 90 2 33 285 287 246 233 317 329 356 86 235 253 268 283 280 279 278 278 277 277 277 283 296 294 285 284 286 290 299 305 306 308 311 319 325 331 320 296 306 307 302 290 298 296 290 292
143 224 223 49 164 204 304 269 197 212 262 357 355 3 341 322 319 312 305 300 294 289 287 288 291 300 299 281 277 281 281 288 297 301 302 302 305 316 327 323 315 302 306 296 296 295 297 299 294
336 255 187 146 225 238 113 273 237 83 32 312 286 328 358 339 323 315 311 309 308 306 303 301 298 298 302 291 272 276 274 277 289 296 298 295 298 301 309 318 312 314 292 282 293 294 295 298 295